Jackpot

Texas Poker Multi Jackpot System

Kini Telah hadir Jackpot SUPER ROYAL FLUSH

Kini Telah hadir Jackpot 2000 (khusus table VIP keatas).

Ikutilah global jackpot yang tersedia di system kami, dengan system jackpot terbaru dan pertama di indonesia, anda dapat membeli jackpot dengan harga 100 rupiah saja dan menangkan hadiahnya hingga puluhan juta rupiah.

Jackpot bukanlah suatu keharusan untuk dibeli, namun kami memberikan suatu fitur tambahan untuk member tercinta dari www.pokergp.com.

Terdapat tiga pilihan harga jackpot yang bisa anda beli yaitu :100,500,1000 dan 2000(khusus table VIP Keatas) rupiah.

Hadiah dari Multi jackpot system www.pokergp.com

  1. full house x 10 harga jackpot yang anda beli.
      (contoh:anda membeli 1000 maka:1000 X10 = 10.000)
  2. four of kind x 250 harga jackpot yang anda beli
      (contoh:anda membeli 1000 maka:1000 X250 = 250.000)
  3. Straight flush x 1200
      (contoh:anda membeli 1000 maka:1000 X1200 = 1.200.000)
  4. Royal flush x 10000 harga jackpot yang anda beli
      (contoh:anda membeli 1000 maka:1000 X10000 = 10.000.000)
  5. SUPER ROYAL FLUSH x 30000 harga jackpot yang anda beli
      (contoh:anda membeli 1000 maka:1000 X30000 = 30.000.000)

Kondisi kartu

  1. full house adalah kondisi kartu dimana kartu anda dan kartu tengah dengan total 7 kartu bisa mendapatkan nilai 5 kartu dengan kombinasi 1 tris(three of kind) dan 1 pair, contoh 3 kartu 10 dan 2 kartu 5
  2. Four of kind adalah kondisi kartu dimana kartu anda dan kartu tengah dengan total 7 kartu bisa mendapatkan nilai 5 kartu dengan kombinasi 4 kartu yang sama jumlah dan 1 kartu apapun juga contoh anda mendapatkan 4 buah kartu angka 3 dan 1 kartu apapun.
  3. Staright flush adalah kondisi kartu dimana kartu anda dan kartu tengah dengan total 7 kartu bisa mendapatkan nilai 5 kartu dengan kombinasi seri / staright dengan kembang yang sama contoh : urutan kartu dari angka 5, 6, 7, 8 , 9 10 dengan kembang yg sama misalnya as hati
  4. Royal flush adalah kondisi kartu dimana kartu anda dan kartu tengah dengan total 7 kartu bisa mendapatkan nilai 5 kartu dengan kombinasi seri / staright dengan kembang yang sama tetapi kartu tersebut haruslah dimulai dari 10. contoh 10, Queen, Jack, King dan aces dengan kembang yang sama
  5. Super Royal flush adalah kondisi kartu dimana Kedua kartu anda digabung dengan 3 kartu pertama meja haruslah royal flush. contoh kartu anda 10,Queen kembang sama dan 3 kartu pertama meja adalah Jack, King dan aces dengan kembang yang sama

Demikian adalah penjelasan dari Multi Jackpot www.pokergp.com terima kasih dan selamat bermain salam hoki dari kami

Texas Poker Jackpot Winner

TOP SUPER ROYAL FLUSH
No.TanggalNamaPriceWin
118/01 22:07PHOTEN9Super Royal flush3,000,000
218/01 19:56JR270186Super Royal flush15,000,000
318/01 11:15VERY90Super Royal flush3,000,000
418/01 10:09B904154ESuper Royal flush15,000,000
517/01 22:46GOLOK_JRZSuper Royal flush30,000,000
TOP ROYAL FLUSH
No.TanggalNamaPriceWin
119/01 15:28YNA11Royal flush10,000,000
219/01 15:23BAGUS5758Royal flush1,000,000
319/01 15:21GDNGPOKERRoyal flush10,000,000
419/01 15:19LOCHNESSRoyal flush5,000,000
519/01 14:55XVVFHY58SURoyal flush1,000,000
TOP STRAIGHT FLUSH
No.TanggalNamaPriceWin
119/01 15:33ANPFANSILEAStraight Flush600,000
219/01 15:27NOKOHStraight Flush600,000
319/01 15:27MUBARAK88Straight Flush120,000
419/01 15:27DR2216Straight Flush600,000
519/01 15:26GLI4NOStraight Flush600,000
LATEST JACKPOT
No.TanggalNamaPriceWin
119/01 15:35SIFAASFull House10,000
219/01 15:35FERIO16Full House10,000
319/01 15:35B4NGSATFull House10,000
419/01 15:35M4RM0Y0Full House5,000
519/01 15:35MZBACKFull House1,000
619/01 15:35E611462BFull House5,000
719/01 15:35C6222878Full House5,000
819/01 15:35KAKUHANFull House20,000
919/01 15:35BALAREFull House1,000
1019/01 15:35SALCUKFull House5,000
1119/01 15:35HEBOH71Full House1,000
1219/01 15:35WANTAWFull House10,000
1319/01 15:35NADANADI1Full House5,000
1419/01 15:35RIVERIAFull House5,000
1519/01 15:35DICKAYXXXFull House1,000
1619/01 15:35AKB4R_G3TTFull House5,000
1719/01 15:35HBN66Full House1,000
1819/01 15:35D5ZXXB3ZATFull House1,000
1919/01 15:34BAZON88Full House1,000
2019/01 15:34FBRAGAFull House10,000
2119/01 15:34A10B09C1Four Of A Kind125,000
2219/01 15:34GLER01Full House20,000
2319/01 15:34LULALALUFull House10,000
2419/01 15:34MUHALI1Full House1,000
2519/01 15:34E29F754DFull House10,000
2619/01 15:34POOKEFull House1,000
2719/01 15:34MEGAWINNERFull House1,000
2819/01 15:34CAKIL5IFull House1,000
2919/01 15:34GI123Full House10,000
3019/01 15:34BANDAR30Full House5,000
3119/01 15:34DBYCID4NWBFull House1,000
3219/01 15:34HEKOX09Full House1,000
3319/01 15:34PMANBLUESFour Of A Kind25,000
3419/01 15:34ABDUL11Full House5,000
3519/01 15:34BAYIUK3Full House1,000
3619/01 15:34PENI88Full House5,000
3719/01 15:34ARTO9999Four Of A Kind25,000
3819/01 15:34A_12_35_4Full House10,000
3919/01 15:34DPG7AWDPODFull House10,000
4019/01 15:34TIKUSLAPARFull House5,000
4119/01 15:34ILOV3YOUFull House5,000
4219/01 15:34KRATON13Full House5,000
4319/01 15:34BASISC77Four Of A Kind25,000
4419/01 15:34ANTONIU5SSFull House5,000
4519/01 15:34DF6199B1Full House1,000
4619/01 15:34GOJIN86Full House1,000
4719/01 15:34L30T4T0Full House1,000
4819/01 15:34JOB2017Full House5,000
4919/01 15:34BIRONX99Full House10,000
5019/01 15:34FAIR69Full House10,000

Domino Multi Jackpot System

Ikutilah global jackpot yang tersedia di system kami, dengan system jackpot terbaru dan pertama di indonesia, anda dapat membeli jackpot dengan harga 100 rupiah saja dan menangkan hadiahnya hingga puluhan juta rupiah.

Jackpot bukanlah suatu keharusan untuk dibeli, namun kami memberikan suatu fitur tambahan untuk member tercinta dari www.pokergp.com.

Terdapat tiga pilihan harga jackpot yang bisa anda beli yaitu :100,500 dan 1000 rupiah.

Hadiah dari Multi jackpot system www.pokergp.com

  1. Murni Kecil x 50 harga jackpot yang anda beli.
      (contoh:anda membeli 1000 maka:1000 X 50 = 50.000)
  2. Murni Besar x 50 harga jackpot yang anda beli
      (contoh:anda membeli 1000 maka:1000 X 50 = 50.000)
  3. BALAK x 100 harga jackpot yang anda beli
      (contoh:anda membeli 1000 maka:1000 X 100 = 100.000)
  4. ENAM DEWA x 6666 harga jackpot yang anda beli
      (contoh:anda membeli 1000 maka:1000 X 6666 = 6.666.000)

Demikian adalah penjelasan dari Multi Jackpot www.pokergp.com terima kasih dan selamat bermain salam hoki dari kami

Domino Jackpot Winner

TOP ENAM DEWA
No.TanggalNamaPriceWin
119/01 13:23KBA6WTT4RHmurni enam6,666,000
219/01 01:36THEMEZ72murni enam6,666,000
319/01 01:24PIC_SHUITmurni enam3,333,000
419/01 00:49M3R4H99murni enam6,666,000
518/01 23:49FLUS85murni enam3,333,000
TOP BALAK
No.TanggalNamaPriceWin
119/01 15:35R4K451W1balak10,000
219/01 15:33V4NIS4balak10,000
319/01 15:28DA6F17EBbalak50,000
419/01 15:26TOHIR77CIKbalak50,000
519/01 15:26JERRYANTObalak100,000
LATEST JACKPOT
No.TanggalNamaPriceWin
119/01 15:35R4K451W1balak10,000
219/01 15:33BENTCOmurni besar50,000
319/01 15:33V4NIS4balak10,000
419/01 15:33JACKMILERmurni kecil25,000
519/01 15:32LOSARI77murni kecil50,000
619/01 15:31TEMPOYAK71murni besar50,000
719/01 15:30ROYAL6666murni kecil50,000
819/01 15:30CANP1CONmurni besar50,000
919/01 15:29JENDRAL011murni kecil25,000
1019/01 15:29DDJJ22murni besar25,000
1119/01 15:28DA6F17EBbalak50,000
1219/01 15:27UYEMANmurni besar25,000
1319/01 15:27UNYU111murni kecil25,000
1419/01 15:27SONY000murni besar25,000
1519/01 15:26TOHIR77CIKbalak50,000
1619/01 15:26JERRYANTObalak100,000
1719/01 15:26LOSARI77balak100,000
1819/01 15:26HIKAM92murni kecil50,000
1919/01 15:26OZY703murni besar5,000
2019/01 15:25AC69murni besar50,000
2119/01 15:24KPN72murni besar25,000
2219/01 15:24UNYU111murni besar25,000
2319/01 15:23JERRYANTObalak100,000
2419/01 15:21SEPTICTANKmurni kecil50,000
2519/01 15:20WIRRO_212murni besar25,000
2619/01 15:20B4NGSAT7murni kecil5,000
2719/01 15:20N3R1murni besar5,000
2819/01 15:18DIANTO76murni besar50,000
2919/01 15:18EMBOSmurni kecil25,000
3019/01 15:17DEWA1199murni kecil5,000
3119/01 15:17MAJU_TERUSmurni kecil50,000
3219/01 15:17CARTEERmurni kecil25,000
3319/01 15:16BUD196murni kecil50,000
3419/01 15:16ANCYRAbalak10,000
3519/01 15:15ASSASALIMmurni besar25,000
3619/01 15:14BNT08murni kecil25,000
3719/01 15:13HARIESJOZmurni besar50,000
3819/01 15:13PIT99murni kecil50,000
3919/01 15:12FIT9murni besar25,000
4019/01 15:11A093murni kecil25,000
4119/01 15:11CUSS9murni kecil25,000
4219/01 15:09ALGI82murni besar5,000
4319/01 15:09ARPIT991murni besar50,000
4419/01 15:07G4G49QQmurni besar50,000
4519/01 15:06X1FLWTCXHQmurni kecil5,000
4619/01 15:06ROYAL6666murni besar50,000
4719/01 15:06SARGEBbalak50,000
4819/01 15:06SANASINIOKmurni kecil5,000
4919/01 15:06GJJKYHE3QOmurni besar25,000
5019/01 15:05ANTONIO73murni besar50,000

Ceme Multi Jackpot System

Jackpot dilihat dari gabungan kartu pemain dengan kartu bandar. Bandar harus membeli jackpot sebanyak jumlah player yang sedang duduk. Sebagai contoh bila terdapat 3 pemain duduk bermain, dan bandar memutuskan untuk membeli jackpot Rp 1.000, maka pada periode tersebut bandar akan membeli jackpot sebanyak 3xRp1.000 = Rp3.000.

Jackpot bukanlah suatu keharusan untuk dibeli, namun kami memberikan suatu fitur tambahan untuk member tercinta dari www.pokergp.com.

Terdapat tiga pilihan harga jackpot yang bisa anda beli yaitu :100,500 dan 1000 rupiah.

Hadiah dari Multi jackpot system www.pokergp.com

  1. Murni Kecil x 50 harga jackpot yang anda beli.
      (contoh:anda membeli 1000 maka:1000 X 50 = 50.000)
  2. Murni Besar x 50 harga jackpot yang anda beli
      (contoh:anda membeli 1000 maka:1000 X 50 = 50.000)
  3. BALAK x 200 harga jackpot yang anda beli
      (contoh:anda membeli 1000 maka:1000 X 200 = 200.000)
  4. ENAM DEWA x 6666 harga jackpot yang anda beli
      (contoh:anda membeli 1000 maka:1000 X 6666 = 6.666.000)

Demikian adalah penjelasan dari Multi Jackpot www.pokergp.com terima kasih dan selamat bermain salam hoki dari kami

Ceme Jackpot Winner

TOP ENAM DEWA
No.TanggalNamaPriceWin
119/01 15:16BAROOmurni enam3,333,000
219/01 15:16IWANPmurni enam6,666,000
319/01 15:10B1GNENENmurni enam3,333,000
419/01 14:42GOTEM008murni enam6,666,000
519/01 14:22HELBEHmurni enam666,600
TOP BALAK
No.TanggalNamaPriceWin
119/01 15:34AGUSPUIbalak200,000
219/01 15:33ASINPEDEZbalak20,000
319/01 15:33BENGJE001balak200,000
419/01 15:29LP12balak200,000
519/01 15:29KUCIR9balak100,000
LATEST JACKPOT
No.TanggalNamaPriceWin
119/01 15:35JOV77POmurni kecil50,000
219/01 15:35T8V3GCOMKNmurni besar25,000
319/01 15:35BNIAG66808murni besar50,000
419/01 15:35SAMSON_01murni kecil50,000
519/01 15:35ZARCO86murni kecil50,000
619/01 15:34DAUNJATI9murni kecil25,000
719/01 15:34MANIH12murni besar50,000
819/01 15:34AGUSPUIbalak200,000
919/01 15:34HWALACHmurni kecil5,000
1019/01 15:34SAHRULQQmurni kecil5,000
1119/01 15:34LP12murni kecil50,000
1219/01 15:34BGNXmurni kecil5,000
1319/01 15:34A5SIPmurni kecil50,000
1419/01 15:34DAPAT100murni besar25,000
1519/01 15:34AGUSCOY27murni kecil50,000
1619/01 15:34KTSKYXLYCKmurni kecil50,000
1719/01 15:34ARTAYA2murni kecil5,000
1819/01 15:33ASINPEDEZbalak20,000
1919/01 15:33ASINPEDEZmurni kecil5,000
2019/01 15:33BALATASATUmurni kecil5,000
2119/01 15:33REGAS99Qmurni besar50,000
2219/01 15:33AGENT88231murni besar50,000
2319/01 15:33BAMMMmurni besar25,000
2419/01 15:33T8V3GCOMKNmurni kecil25,000
2519/01 15:33HEVETIAmurni besar50,000
2619/01 15:33UNANA48murni besar50,000
2719/01 15:33KREMEZ88murni kecil50,000
2819/01 15:33BENGJE001balak200,000
2919/01 15:33BRENDOS020murni kecil5,000
3019/01 15:33KK_BROmurni kecil50,000
3119/01 15:33B_100_Zmurni kecil50,000
3219/01 15:33RAFAHOKImurni kecil25,000
3319/01 15:33ABYHOKImurni kecil50,000
3419/01 15:33RAFAHOKImurni kecil25,000
3519/01 15:33ROISHOKImurni kecil50,000
3619/01 15:32SAEPULLAH1murni besar5,000
3719/01 15:32SULE858murni besar25,000
3819/01 15:32D453P82murni besar25,000
3919/01 15:32KTSKYXLYCKmurni kecil50,000
4019/01 15:32BIM25murni besar50,000
4119/01 15:31URIPSONGOmurni kecil5,000
4219/01 15:31YASUDAHLAHmurni besar5,000
4319/01 15:31BAJOL91murni kecil50,000
4419/01 15:31LAMBRETTA9murni besar25,000
4519/01 15:31NEKOKEM97murni besar25,000
4619/01 15:31COKOR8000murni kecil50,000
4719/01 15:31BANGNATA88murni besar50,000
4819/01 15:31APELKU12murni kecil50,000
4919/01 15:31URIPSONGOmurni kecil5,000
5019/01 15:31ADU234murni kecil50,000